Presure
102 117 115 119 109 127 105 98 107 110 122 122 110 101 102 104 108 108 102 109 116 109 108 108 111 113 103 131 125 127 128 109 82 121 114 118 125 120 127 124 113 128 139 176 206
107 102 105 99 99 108 105 103 111 102 105 113 114 111 113 109 110 109 106 103 102 102 105 111 114 114 110 117 114 122 125 98 119 113 125 117 123 111 124 122 130 134 208 203 154
106 97 136 97 109 102 97 109 110 116 104 123 106 101 111 110 106 111 101 109 111 112 109 111 113 110 111 102 122 124 119 96 120 108 127 128 125 131 105 133 130 136 138 129 188
94 97 107 111 109 107 109 100 101 108 101 108 110 98 118 100 110 110 119 118 121 123 116 118 116 117 117 116 125 112 124 102 120 92 122 114 126 124 126 120 132 145 209 92 91
118 118 107 113 110 110 110 112 114 115 110 106 115 108 116 118 119 117 114 124 123 117 125 133 123 120 121 119 121 119 125 113 121 121 131 130 128 133 135 121 123 140 147 86 184
111 124 118 107 104 106 125 116 110 115 112 114 112 114 114 113 101 102 112 121 115 122 128 124 120 113 109 120 121 120 95 117 127 136 131 107 122 111 112 121 140 133 196 190 181
132 133 107 109 114 126 120 116 126 119 98 104 111 109 117 102 120 117 115 119 123 126 136 129 123 138 135 133 127 139 130 143 122 129 123 145 121 137 129 136 142 177 191 198 188
126 122 122 125 134 111 125 122 114 115 114 118 112 117 118 118 120 117 107 116 123 115 115 111 124 129 141 112 129 136 90 108 129 140 142 136 145 128 138 139 108 151 200 198 192
178 156 182 147 127 119 120 124 127 124 135 112 131 112 126 109 111 115 121 116 125 117 127 116 125 111 127 121 115 79 142 128 138 131 129 139 135 134 134 139 201 163 198 193 187
211 163 166 168 128 161 134 138 139 131 145 127 124 130 115 119 109 127 135 130 120 128 124 139 124 116 122 131 120 133 133 98 144 137 138 128 137 134 143 173 198 193 190 194 181
212 222 210 216 227 228 197 230 232 124 148 123 131 230 122 118 135 126 127 132 236 127 168 144 168 137 210 131 176 177 129 169 204 194 126 182 132 198 201 204 168 201 205 282 224
207 168 217 218 217 220 219 222 195 225 182 219 220 217 167 182 221 216 224 220 217 212 110 215 205 169 190 144 155 164 142 118 138 159 106 170 153 214 200 206 208 225 215 282 232
206 206 207 209 211 210 219 212 216 218 236 236 229 223 211 211 212 209 208 208 216 212 173 167 207 209 216 215 216 213 210 171 195 197 203 200 206 198 209 202 218 208 249 235 240
202 201 207 205 203 205 205 201 223 228 229 225 220 219 213 213 210 208 204 201 202 200 199 211 201 199 199 206 210 203 199 187 178 193 193 202 197 211 185 199 215 239 235 236 189
193 197 201 196 201 199 201 225 214 219 219 228 222 235 216 221 212 209 210 201 199 198 213 203 205 198 203 206 208 206 199 201 198 197 198 194 197 205 197 204 197 237 225 191 232
198 201 203 200 206 218 219 215 214 223 240 255 259 233 238 211 205 213 208 205 200 200 200 207 207 206 210 203 199 200 197 199 191 196 198 197 203 201 194 203 204 199 208 186 190
201 205 204 207 213 206 207 239 240 213 211 245 249 234 241 230 208 202 206 208 197 197 208 211 196 198 204 206 204 201 197 193 198 193 197 198 202 131 187 196 195 197 195 172 172
210 205 205 209 201 205 203 206 203 195 214 236 252 247 240 236 234 206 205 206 201 194 194 198 194 194 200 202 207 199 194 199 192 194 194 203 198 197 180 206 204 182 227 260 95
201 201 203 210 203 203 199 203 194 206 222 226 245 237 234 229 215 221 201 206 200 198 195 200 195 194 197 199 198 202 201 192 192 197 191 201 195 195 178 204 181 269 158 155 100
205 200 204 206 202 194 192 201 198 211 225 226 238 227 225 221 234 222 197 201 202 198 198 197 200 194 199 193 195 191 192 187 192 191 192 202 193 186 178 166 254 270 145 220 177
207 206 203 196 199 191 192 190 205 209 221 234 226 215 219 227 218 218 202 207 208 195 199 205 200 192 190 191 195 194 193 194 195 191 191 200 203 183 175 193 221 162 203 202 110
204 207 201 200 198 194 190 211 210 209 228 226 215 207 207 208 211 212 201 199 205 199 192 220 195 186 185 187 196 199 202 192 193 199 192 198 201 170 172 222 203 181 197 217 221
208 204 202 204 198 197 193 212 202 218 226 220 210 213 203 205 212 213 209 205 208 201 216 213 191 190 206 201 198 205 195 196 192 197 200 192 201 173 192 220 221 209 132 202 130
210 206 196 195 204 196 191 201 197 227 216 218 212 207 204 205 218 208 210 218 212 211 213 218 208 202 208 201 201 200 199 197 195 188 211 207 227 132 203 173 199 188 187 127 158
210 212 206 206 206 195 191 188 196 221 238 214 212 210 206 208 216 215 207 207 208 208 205 204 203 195 197 200 203 179 206 209 214 206 210 223 206 185 193 194 209 169 189 170 182
201 198 203 209 204 199 197 189 196 207 200 211 211 210 198 206 204 193 191 194 193 195 195 196 197 198 201 201 202 202 205 211 217 217 224 214 119 205 201 204 190 172 170 168 172
216 209 206 214 211 208 197 193 199 205 189 202 196 195 189 188 191 185 186 188 190 192 190 196 198 195 194 202 203 203 217 209 211 215 209 206 203 213 217 217 230 221 191 178 166
Wind_Speed
28 40 35 36 28 41 26 26 25 26 30 30 27 22 21 20 21 22 18 18 23 16 18 16 20 23 12 33 31 27 26 6 8 17 13 15 19 18 29 21 15 37 50 24 37
37 32 34 25 25 32 29 26 33 27 28 33 32 29 30 28 28 27 25 20 18 16 18 23 26 26 19 26 22 23 22 11 6 7 29 16 16 13 25 23 43 47 33 32 15
34 31 60 30 35 29 25 37 37 38 30 39 30 25 31 32 26 33 22 29 28 30 27 28 31 26 22 13 38 37 15 15 22 14 34 32 18 34 12 48 40 45 41 15 30
28 29 38 46 42 39 42 26 28 34 27 35 37 30 43 24 37 35 44 43 42 44 38 39 39 38 36 33 44 15 28 17 16 8 17 17 38 24 33 21 45 47 35 9 12
57 57 38 51 46 46 45 47 48 48 41 30 48 40 49 49 47 38 36 48 45 38 49 50 44 42 41 32 35 25 33 14 23 13 35 37 45 51 48 23 33 48 27 4 36
46 70 59 42 38 38 65 55 43 52 48 51 46 47 45 37 23 24 35 53 44 51 54 46 37 24 27 30 25 30 20 24 35 44 37 17 30 21 24 33 57 41 36 36 36
78 75 41 46 51 69 65 57 67 62 35 37 44 39 52 30 61 55 48 60 58 59 61 57 44 66 66 49 41 58 43 64 27 33 16 57 20 51 38 54 60 47 40 38 37
74 72 68 71 78 51 71 69 58 59 57 65 50 59 57 61 67 60 30 44 57 32 30 28 49 61 72 26 48 59 21 24 43 56 60 50 61 34 57 57 16 62 41 35 33
99 95 98 79 73 64 68 74 77 74 79 57 68 52 76 46 42 51 67 52 70 51 54 29 54 32 37 32 34 12 71 54 61 41 38 57 51 49 44 56 38 50 40 37 36
80 94 97 97 82 81 82 85 85 82 86 79 78 84 57 65 39 74 86 78 54 78 65 81 54 41 30 69 38 63 64 25 69 58 56 35 60 51 62 48 37 38 32 34 36
70 62 73 69 63 62 81 59 56 77 78 78 84 49 76 67 88 76 78 83 40 76 82 79 63 73 51 63 71 58 41 63 51 52 29 52 44 37 36 36 44 40 34 25 26
65 83 61 60 61 60 59 57 74 57 81 57 55 53 90 79 48 49 44 43 44 44 43 47 43 52 41 40 39 68 70 32 60 60 23 47 53 35 32 33 34 30 30 19 19
62 61 61 59 59 57 53 56 55 58 50 50 53 51 55 52 50 52 49 47 44 43 57 70 43 41 42 44 40 39 39 44 46 43 39 40 35 34 30 35 31 31 23 21 18
62 63 62 61 59 55 54 60 53 51 49 50 53 55 56 57 56 52 51 50 47 49 47 35 47 47 50 45 40 40 42 43 48 43 39 35 39 28 22 31 27 22 23 19 20
64 63 61 59 57 54 56 51 49 49 47 53 51 50 53 52 52 55 50 52 52 55 49 51 47 49 46 41 38 36 40 40 39 37 36 31 37 25 25 24 29 18 22 19 31
62 61 62 58 53 48 48 45 47 46 41 40 41 51 49 56 56 53 52 53 54 51 49 50 46 47 46 38 40 36 40 37 40 36 34 32 28 18 18 21 23 18 18 22 29
61 57 55 52 46 47 45 35 36 39 48 42 44 52 53 55 57 54 53 53 54 52 53 48 43 42 40 39 38 34 37 38 35 34 34 31 24 17 16 12 20 14 14 21 16
56 54 52 46 47 43 39 38 38 49 50 43 47 50 51 52 52 54 55 54 53 54 52 43 46 44 38 36 35 35 37 35 36 33 33 29 23 18 19 18 13 7 7 17 12
57 54 49 47 44 41 39 40 46 50 52 40 38 43 49 51 52 51 53 54 54 53 49 45 47 41 39 39 38 36 36 33 37 33 31 29 23 15 21 20 12 19 16 20 21
57 52 50 47 42 41 38 41 48 47 48 40 40 44 48 51 49 49 55 56 52 50 48 48 46 41 43 39 40 37 36 35 35 34 31 27 21 23 19 11 10 7 20 27 29
57 55 53 45 42 44 45 47 49 43 44 41 42 44 43 38 42 44 52 52 48 50 47 45 43 41 40 41 42 39 39 38 34 35 32 31 20 21 17 15 11 13 18 28 13
56 57 52 48 46 50 48 43 46 41 44 46 46 49 48 48 50 47 51 52 45 48 46 42 41 41 43 45 42 43 40 36 36 35 30 29 23 18 19 16 18 12 21 6 1
61 59 55 52 52 51 45 41 42 37 42 48 43 51 48 47 45 45 48 44 44 45 40 38 40 46 42 44 44 40 38 40 36 36 33 27 24 18 20 19 14 13 23 5 15
64 60 52 51 51 50 47 43 43 37 40 43 43 44 47 49 43 41 37 37 38 37 37 37 35 42 41 39 38 40 44 42 37 36 34 27 23 20 22 20 13 18 13 19 12
65 61 61 59 57 56 52 47 40 33 42 47 47 49 51 50 40 31 29 32 29 25 27 31 33 40 39 38 37 34 43 42 38 36 32 25 21 27 27 22 26 21 15 10 4
67 63 65 62 61 62 58 53 44 38 50 50 48 49 45 38 35 37 38 31 27 29 32 36 36 39 38 40 39 43 42 43 38 33 27 23 17 29 32 28 26 27 25 19 5
83 76 70 68 63 64 59 51 47 47 51 53 51 48 46 44 44 42 36 33 32 39 42 42 38 39 40 43 43 40 45 41 31 30 25 25 26 30 30 35 41 44 43 38 26
Wind_Direction
215 232 234 229 231 236 227 219 234 244 249 249 245 230 236 239 243 249 239 260 265 259 266 267 276 280 249 284 297 298 294 211 159 317 267 319 336 340 339 332 310 328 324 285 298
233 229 229 217 219 231 240 235 245 231 239 251 250 249 250 247 250 255 248 239 228 236 256 272 275 278 265 286 279 300 290 208 324 282 310 310 332 313 334 329 326 325 305 303 278
223 222 237 219 239 238 215 246 246 247 230 247 246 239 249 259 247 261 239 259 258 261 259 265 272 268 269 238 287 285 294 213 300 206 310 312 320 324 291 323 326 325 319 288 309
234 238 247 244 246 247 247 230 227 248 231 254 258 252 260 239 264 266 264 264 262 263 262 265 265 270 274 273 279 265 290 221 280 239 319 301 324 330 324 317 322 310 311 246 271
238 237 248 246 251 251 250 251 251 248 254 248 259 258 262 265 266 259 261 264 265 263 266 265 266 268 271 268 275 279 284 264 287 288 304 304 309 310 310 307 303 316 308 265 304
251 237 241 245 242 248 243 251 251 253 254 257 260 261 264 264 226 237 261 269 266 271 268 266 263 255 253 269 277 270 208 275 294 290 305 259 304 298 289 302 313 304 307 302 303
236 238 247 256 254 243 247 255 245 250 239 264 260 262 263 239 264 268 270 272 269 268 266 270 274 270 273 267 275 276 285 279 288 300 290 294 289 311 316 312 310 307 305 301 298
243 247 248 246 242 252 248 250 259 262 261 252 255 258 261 261 264 267 247 269 268 259 252 246 278 275 269 249 280 276 222 258 286 292 294 302 294 304 307 310 272 304 301 301 302
247 247 249 252 250 255 255 252 248 252 246 259 254 260 253 261 263 267 266 269 263 267 259 262 275 248 273 264 256 206 278 279 288 297 292 298 301 305 299 304 296 298 301 305 308
248 250 249 249 252 252 249 248 247 250 247 250 255 253 263 259 251 258 258 261 260 266 265 264 266 256 276 274 260 281 282 239 281 291 289 302 299 301 296 295 293 294 295 301 301
249 248 251 253 252 251 253 252 252 251 251 254 255 250 259 260 255 262 263 261 244 267 266 267 266 263 262 274 267 269 272 270 271 276 284 282 297 288 294 294 292 294 298 310 305
248 249 248 249 250 250 251 251 254 253 255 251 249 248 260 260 247 250 247 249 249 250 233 251 254 268 255 261 247 270 274 243 283 286 245 287 294 293 291 292 288 299 305 322 308
248 248 249 250 250 251 254 253 251 250 247 244 246 244 248 248 248 247 246 246 245 243 257 259 255 254 255 261 263 262 267 262 271 269 276 282 288 285 295 294 300 303 319 314 298
245 247 249 249 250 251 252 251 250 247 244 241 240 239 240 238 239 241 243 245 244 246 247 241 248 251 255 261 265 259 261 264 271 273 272 283 280 291 287 298 311 321 328 330 311
246 248 248 251 253 252 251 248 249 246 246 245 242 239 240 237 238 237 235 237 239 242 232 243 243 255 254 256 260 260 260 263 266 271 273 274 284 295 301 299 305 299 323 314 352
246 248 250 251 252 247 244 245 247 249 248 246 232 235 229 232 232 230 232 233 238 245 246 244 246 246 251 255 254 255 258 262 261 268 273 273 275 285 289 299 308 318 325 335 343
247 248 247 248 243 244 246 243 242 249 248 241 228 226 223 226 228 228 229 229 235 239 236 239 248 251 253 251 253 252 255 257 261 267 271 272 272 233 279 277 275 309 299 299 303
243 243 243 243 241 243 244 245 243 244 245 239 227 222 223 223 218 224 229 228 230 236 241 241 242 246 254 252 249 246 250 254 258 262 267 270 265 269 267 275 259 289 171 82 243
240 241 240 238 239 241 243 242 243 243 242 242 233 228 224 222 221 222 228 229 230 234 239 239 243 247 246 248 247 245 246 250 256 260 259 264 263 260 257 274 263 255 209 248 224
236 241 237 235 235 235 236 238 245 244 237 235 221 218 221 219 219 216 226 230 229 233 236 238 242 244 246 247 248 250 248 250 257 260 259 264 247 257 248 263 232 222 244 203 241
235 235 233 232 231 232 233 237 244 245 240 230 211 211 216 213 220 215 225 230 230 236 237 239 243 245 248 249 248 248 250 250 248 252 257 264 256 248 258 282 212 241 218 214 232
230 231 230 229 226 230 232 239 242 244 233 220 206 211 218 211 214 211 220 226 230 235 239 235 239 243 245 249 248 247 245 248 252 253 252 261 265 245 257 267 274 265 164 94 140
229 228 229 228 225 229 232 241 245 242 228 222 219 213 220 224 215 217 221 227 228 230 235 234 233 240 236 241 248 249 251 250 246 253 250 250 259 250 259 230 230 214 242 53 226
228 226 227 229 227 228 228 236 239 236 224 221 217 217 218 225 224 216 223 225 229 233 238 240 229 238 238 243 247 248 246 249 250 251 256 253 263 234 246 239 233 216 224 238 209
228 227 225 226 224 225 225 227 232 220 214 219 212 210 210 220 220 207 199 212 225 231 232 236 235 239 243 244 248 248 254 255 251 247 251 257 240 235 237 226 199 252 217 264 217
224 221 224 223 221 222 223 221 218 205 207 209 203 203 204 215 202 208 212 215 226 238 234 236 236 241 245 246 244 249 250 252 253 254 254 245 221 240 238 220 203 214 245 263 206
223 224 224 227 220 221 224 222 220 208 220 205 209 204 205 211 206 213 216 220 229 232 233 239 241 245 250 256 252 249 249 248 246 246 239 242 233 231 228 215 207 211 213 221 227